Regional Weather Roundup
Issued by NWS

Home | Current Version | Previous Version | Graphics & Text | Print | Product List | Glossary On
Versions: 1 2 3 4 5 6 7 8 9 10 11 12 13 14 15 16 17 18 19 20 21 22 23 24 25 26 27 28 29 30 31 32 33 34 35 36 37 38 39 40 41 42 43 44 45 46 47 48 49 50
000
ASUS45 KPSR 270600
RWRAZ

PRELIMINARY ARIZONA REGIONAL HOURLY WEATHER ROUNDUP
NATIONAL WEATHER SERVICE PHOENIX AZ
1100 PM MST WED NOV 26 2014

NOTE: FAIR INDICATES FEW OR NO CLOUDS BELOW 12,000 FEET WITH NO
SIGNIFICANT WEATHER AND/OR OBSTRUCTIONS TO VISIBILITY.

AZZ001>003-036-270700-
NORTHWEST ARIZONA

CITY           SKY/WX    TMP DP  RH WIND       PRES   REMARKS
KINGMAN        PTCLDY    39  16  39 CALM      30.35R
6HR MIN TEMP:  36; 6HR MAX TEMP:  63;

$$

AZZ004>008-015-016-018-270700-
NORTH CENTRAL ARIZONA

CITY           SKY/WX    TMP DP  RH WIND       PRES   REMARKS
GRAND CANYON   PTCLDY    21   7  54 CALM      30.49R
6HR MIN TEMP:  20; 6HR MAX TEMP:  55;

PRESCOTT       CLEAR     41  16  36 S8        30.40R
6HR MIN TEMP:  39; 6HR MAX TEMP:  67;

FLAGSTAFF      NOT AVBL
PAYSON         CLEAR     54  12  19 CALM      30.39S
PAGE           CLEAR     43  19  38 CALM      30.42R HAZE
6HR MIN TEMP:  43; 6HR MAX TEMP:  54;

$$

AZZ009>014-017-270700-
NORTHEAST ARIZONA

CITY           SKY/WX    TMP DP  RH WIND       PRES   REMARKS
WINSLOW        NOT AVBL
SAINT JOHNS    PTCLDY    37  18  46 S10       30.45S WCI  30
6HR MIN TEMP:  37; 6HR MAX TEMP:  55;

SHOW LOW       PTCLDY    32  14  47 E3        30.49S
$$

AZZ023-270700-
GREATER PHOENIX AREA

CITY           SKY/WX    TMP DP  RH WIND       PRES   REMARKS
PHOENIX        CLEAR     58  26  29 SE3       30.18S
6HR MIN TEMP:  56; 6HR MAX TEMP:  72;

LUKE AFB       CLEAR     51  28  41 N6        30.19R
6HR MIN TEMP:  51; 6HR MAX TEMP:  71;

DEER VALLEY    CLEAR     54  19  25 CALM      30.19F
6HR MIN TEMP:  54; 6HR MAX TEMP:  71;

SCOTTSDALE     CLEAR     52  23  32 CALM      30.21S
6HR MIN TEMP:  52; 6HR MAX TEMP:  71;

MESA-GATEWAY   CLEAR     46  19  34 CALM      30.22R
$$

AZZ027-028-270700-
SOUTHWEST MARICOPA COUNTY AND PINAL COUNTY

CITY           SKY/WX    TMP DP  RH WIND       PRES   REMARKS
CASA GRANDE    CLEAR     52  16  24 CALM      30.21R
6HR MIN TEMP:  50; 6HR MAX TEMP:  70;

$$

AZZ503-504-507>509-270700-
SOUTHEAST ARIZONA

CITY           SKY/WX    TMP DP  RH WIND       PRES   REMARKS
TUCSON         CLEAR     49  15  25 CALM      30.25S
6HR MIN TEMP:  48; 6HR MAX TEMP:  72;

DAVIS-MONTHAN  CLEAR     49  16  26 CALM      30.23S
6HR MIN TEMP:  49; 6HR MAX TEMP:  68;

NOGALES        CLEAR     46  18  32 VRB3      30.27S
6HR MIN TEMP:  45; 6HR MAX TEMP:  72;

SIERRA VISTA   CLEAR     46  19  34 CALM      30.31F
6HR MIN TEMP:  46; 6HR MAX TEMP:  66;

SAFFORD        CLEAR     42  13  30 CALM      30.29R
6HR MIN TEMP:  42; 6HR MAX TEMP:  64;

$$

AZZ020-021-025-026-031-270700-
SOUTHWEST ARIZONA

CITY           SKY/WX    TMP DP  RH WIND       PRES   REMARKS
YUMA           NOT AVBL
$$

CAZ031-033-041-043-047-048-061-270700-
SOUTHERN CALIFORNIA

CITY           SKY/WX    TMP DP  RH WIND       PRES   REMARKS
DOWNTOWN L.A.  CLEAR     60  47  61 CALM      30.13S
6HR MIN TEMP:  60; 6HR MAX TEMP:  78;

L.A. AIRPORT   CLEAR     64  49  57 CALM      30.14S
6HR MIN TEMP:  63; 6HR MAX TEMP:  72;

SAN DIEGO      CLEAR     65  34  31 CALM      30.13S
6HR MIN TEMP:  64; 6HR MAX TEMP:  81;

BURBANK        CLEAR     61  26  26 CALM      30.15F
6HR MIN TEMP:  61; 6HR MAX TEMP:  84;

ONTARIO        CLEAR     62  30  29 CALM      30.17S
6HR MIN TEMP:  60; 6HR MAX TEMP:  85;

RIVERSIDE      CLEAR     63  26  24 E7        30.17S
6HR MIN TEMP:  63; 6HR MAX TEMP:  87;

PALM SPRINGS   CLEAR     59  23  25 NW8       30.20S
6HR MIN TEMP:  59; 6HR MAX TEMP:  77;

EL CENTRO NAS  CLEAR     53  27  36 W8        30.16F
6HR MIN TEMP:  51; 6HR MAX TEMP:  77;

IMPERIAL       CLEAR     53  38  56 W7        30.16S
6HR MIN TEMP:  51; 6HR MAX TEMP:  76;

BLYTHE         CLEAR     60  16  18 CALM      30.19S
6HR MIN TEMP:  56; 6HR MAX TEMP:  73;

$$

NVZ020-UTZ003-270700-
SOUTHERN NEVADA-UTAH

CITY           SKY/WX    TMP DP  RH WIND       PRES   REMARKS
LAS VEGAS      NOT AVBL
SALT LAKE CITY PTCLDY    44  27  51 SE12      30.35S
6HR MIN TEMP:  43; 6HR MAX TEMP:  57;

$$

NMZ009-TXZ055-270700-
NEW MEXICO-WEST TEXAS

CITY           SKY/WX    TMP DP  RH WIND       PRES   REMARKS
ALBUQUERQUE    PTCLDY    44  22  41 NW3       30.42R
6HR MIN TEMP:  42; 6HR MAX TEMP:  58;

EL PASO        CLEAR     47  20  34 W3        30.32F
6HR MIN TEMP:  43; 6HR MAX TEMP:  63;

$$


........................KEY........................
SKY/WX - SKY CONDITION/WEATHER
TMP    - TEMPERATURE IN FAHRENHEIT
DP     - DEW POINT IN FAHRENHEIT
RH     - RELATIVE HUMIDITY IN PERCENT
WIND   - DIRECTION AND SPEED IN MILES PER HOUR (MPH)
VRB    - VARIABLE WIND DIRECTION
PRES   - MEAN SEA LEVEL PRESSURE IN INCHES OF MERCURY
         F - FALLING PRESSURE   R - RISING PRESSURE
         S - STEADY PRESSURE
VSB    - VISIBILITY IN MILES
HX     - HEAT INDEX IN FAHRENHEIT
WCI    - WIND CHILL INDEX IN FAHRENHEIT
TC     - TEMPERATURE IN CELSIUS WHICH IS ALSO KNOWN AS
         TEMPERATURE IN CENTIGRADE
AFB    - AIR FORCE BASE
         LUKE AFB IS LUKE AIR FORCE BASE
         DAVIS-MONTHAN IS DAVIS-MONTHAN AIR FORCE BASE
NAS    - NAVAL AIR STATION
         EL CENTRO NAS IS EL CENTRO NAVAL AIR STATION
N/A    - NOT AVAILABLE


USA.gov is the U.S. government's official web portal to all federal, state and local government web resources and services.